Upstream stations:
Downstream station:
SHEF ID: MTCO2 Tar Creek at 22nd Street Bridge
STATION TYPE:
PRECIP STAGE STAGE(2) RIV-FLOW BAT-LOAD
in ft ft cfs volt
Ccp-Rev Ccp-Rev Ccp-Rev Ccp-Rev Ccp-Rev
(US/Central)
03/28 00:00 0.00 4.04 4.06 20 12.33
03/28 01:00 0.00 4.03 4.05 19 12.33
03/28 02:00 0.00 4.03 4.06 19 12.33
03/28 03:00 0.00 4.03 4.05 19 12.25
03/28 04:00 0.00 4.02 4.06 19 12.17
03/28 05:00 0.00 4.01 4.06 18 12.33
03/28 06:00 0.00 4.01 4.06 18 12.25
03/28 07:00 0.00 4.01 4.05 18 12.25
03/28 08:00 0.00 4.00 4.05 18 12.17
03/28 09:00 0.00 4.01 4.06 18 12.25
03/28 10:00 0.00 4.00 4.05 18 12.41
03/28 11:00 0.00 4.00 4.04 18 12.97
03/28 12:00 0.00 4.00 4.03 18 13.21
03/28 13:00 0.00 4.00 4.03 18 13.29
03/28 14:00 0.00 4.00 4.01 18 13.37
03/28 15:00 0.00 4.00 4.02 18 13.29
03/28 16:00 0.00 4.00 4.01 18 13.21
03/28 17:00 0.00 3.99 4.01 17 13.05
03/28 18:00 0.00 3.99 4.02 17 12.97
03/28 19:00 0.00 3.99 4.02 17 13.05
03/28 20:00 0.00 3.99 4.01 17 12.81
03/28 21:00 0.00 3.98 4.01 16 12.49
03/28 22:00 0.00 3.98 4.02 16 12.41
03/28 23:00 0.00 3.99 4.01 17 12.33